GW3119 Weather Reports


time (UTC)temp
C
wind
direction
speed
KPH
gust
KPH
rain 1hr
cm
rain 24hr
cm
rain mn
cm
humidity
%
barometer
mb
20260504043045 6 188 3.2 9.7 0.00 0.15 0.00 96 1007.4
20260504041541 6 195 3.2 9.7 0.00 0.15 0.00 96 1007.5
20260504040058 6 209 4.8 8.0 0.08 0.15 0.00 96 1007.7
20260504034609 6 202 4.8 9.7 0.13 0.15 0.15 96 1007.7
20260504033045 6 0 0.0 3.2 0.13 0.15 0.15 95 1007.8
20260504031545 6 0 3.2 14.5 0.13 0.15 0.15 95 1008.3
20260504030055 7 243 14.5 19.3 0.05 0.08 0.08 95 1008.8
20260504024555 7 242 6.4 16.1 0.00 0.03 0.03 95 1008.2
20260504023046 7 232 4.8 16.1 0.03 0.03 0.03 94 1008.2
20260504021549 7 244 8.0 14.5 0.03 0.03 0.03 94 1008.3
20260504020044 7 283 4.8 14.5 0.03 0.03 0.03 94 1008.3
20260504014543 7 230 9.7 19.3 0.03 0.03 0.03 93 1008.3
20260504013049 6 242 12.9 20.9 0.00 0.00 0.00 91 1008.4
20260504011548 6 226 12.9 20.9 0.00 0.00 0.00 88 1008.5
20260504010045 7 208 14.5 27.4 0.00 0.00 0.00 83 1008.5
20260504004545 7 244 11.3 16.1 0.00 0.00 0.00 76 1008.6
20260504003044 7 224 11.3 17.7 0.00 0.00 0.00 72 1008.3
20260504001559 7 227 8.0 12.9 0.00 0.00 0.00 71 1008.4
20260504000044 7 233 6.4 11.3 0.00 0.00 0.00 70 1008.4
20260503234540 6 209 6.4 9.7 0.00 0.00 0.00 72 1008.4
20260503233045 6 207 4.8 8.0 0.00 0.00 0.00 70 1008.3
20260503231551 7 205 4.8 9.7 0.00 0.00 0.00 70 1008.3
20260503230045 7 211 6.4 11.3 0.00 0.00 0.00 67 1008.2
20260503224544 7 202 4.8 8.0 0.00 0.00 0.00 63 1008.2
20260503223041 8 205 1.6 9.7 0.00 0.00 0.00 67 1008.5
20260503221544 8 0 0.0 8.0 0.00 0.00 0.00 68 1008.5
20260503220049 8 238 6.4 14.5 0.00 0.00 0.00 62 1008.8
20260503214551 8 254 9.7 19.3 0.00 0.00 0.00 61 1008.8
20260503213046 9 252 12.9 19.3 0.00 0.00 0.00 61 1008.6
20260503211549 10 254 11.3 19.3 0.00 0.00 0.00 59 1008.5
20260503210040 10 216 12.9 20.9 0.00 0.00 0.00 56 1008.6
20260503204557 11 227 9.7 20.9 0.00 0.00 0.00 51 1008.6
20260503203050 11 265 16.1 25.7 0.00 0.00 0.00 45 1008.8
20260503201546 10 257 11.3 24.1 0.00 0.00 0.00 54 1009.2
20260503200045 11 243 14.5 24.1 0.00 0.00 0.00 56 1009.4
20260503194546 11 236 12.9 24.1 0.00 0.00 0.00 56 1009.5
20260503193052 10 235 14.5 25.7 0.00 0.00 0.00 66 1009.9
20260503191543 9 257 19.3 27.4 0.00 0.00 0.00 67 1010.2
20260503190100 10 205 17.7 29.0 0.00 0.00 0.00 66 1010.4
20260503184546 9 242 19.3 29.0 0.00 0.00 0.00 67 1010.8
20260503183057 10 245 20.9 33.8 0.00 0.00 0.00 68 1010.8
20260503181545 10 238 19.3 33.8 0.00 0.00 0.00 69 1010.9
20260503180053 10 271 16.1 24.1 0.00 0.00 0.00 66 1010.9
20260503174541 10 256 17.7 29.0 0.00 0.00 0.00 64 1011.1
20260503173109 10 226 19.3 33.8 0.00 0.00 0.00 62 1011.2
20260503171552 9 232 24.1 33.8 0.00 0.00 0.00 67 1011.4
20260503081549 -1 0 0.0 0.0 0.00 0.00 0.00 88 1013.0
20260503071548 0 0 0.0 1.6 0.00 0.00 0.00 84 1013.0
20260503054551 3 0 3.2 6.4 0.00 0.00 0.00 81 1013.2
20260503053049 3 245 0.0 4.8 0.00 0.00 0.00 81 1013.2
20260503051557 3 0 0.0 6.4 0.00 0.00 0.00 81 1013.4
20260503050046 4 0 0.0 6.4 0.00 0.00 0.00 81 1013.4
20260503044545 4 275 1.6 6.4 0.00 0.00 0.00 81 1013.5